Location: Borgo
(42.3939°N, 9.2791°E)
Time: 09:40:51
(UTC+00:00)

Cosmos 1092 Rocket - Pass Details

Date: 27 February 2020
Orbit: 954 x 995 km, 82.9° (Epoch: 09 April)

Event Time Altitude Azimuth Distance (km) Brightness Sun altitude
Rises 18:45:46 0° 356° (N) 3,723 7.2 -18.5°
Reaches altitude 10° 18:48:23 10° 1° (N) 2,770 6.4 -19.0°
Maximum altitude 18:54:36 54° 78° (ENE) 1,197 4.1 -20.1°
Enters shadow 18:58:46 21° 148° (SSE) 2,057 5.3 -20.9°
